User: anonymous   Login
Location: Burgerwiesen
(48.6500°N, 15.6167°E)
Time: 12:02:25
(UTC+00:00)
Language:

Cosmos 1833 Rocket - Orbit

View from above orbital plane
View from above orbital plane
View from above satellite
View from above satellite

Ground track
Ground track

The orbit data is extracted from the following two-line orbital elements,

1 17590U 87027B   20188.82221310 +.00000123 +00000-0 +85541-4 0  9997
2 17590 071.0039 320.6162 0004010 017.3418 342.7841 14.16787379721904
Epoch (UTC): 06 July 2020 19:43:59
Eccentricity: 0.0004010
inclination: 71.0039°
perigee height: 833 km
apogee height: 839 km
right ascension of ascending node: 320.6162°
argument of perigee: 17.3418°
revolutions per day: 14.16787379
mean anomaly at epoch: 342.7841°
orbit number at epoch: 72190

The dashed part of the orbit path shows where the satellite is in the earth's shadow,  

DLR